Location: Wingville
(42.9917°N, 90.4915°W)
Time: 18:38:46
(UTC+00:00)

Cosmos 1805 Rocket - Pass Details

Date: 05 December 2022
Orbit: 605 x 629 km, 82.5° (Epoch: 28 January)

Event Time Altitude Azimuth Distance (km) Brightness Sun altitude
Rises 12:44:52 0° 158° (SSE) 2,849 7.8 -6.1°
Reaches altitude 10° 12:47:19 10° 146° (SE) 1,953 7.2 -5.7°
Maximum altitude 12:50:56 27° 89° (E) 1,192 5.9 -5.1°
Drops below altitude 10° 12:54:35 10° 32° (NNE) 1,977 6.2 -4.5°
Sets 12:57:05 0° 20° (NNE) 2,891 6.9 -4.1°
